Flag for United Kingdom Weather past 2 weeks in Southampton, England, United Kingdom

Now
59 °F

Passing clouds.


Feels Like: 57 °F
Forecast: 51 / 67 °F
Wind: 10 mph from North

Location: Southampton / Weather Centre

Current Time: May 23, 2015 at 10:35:20 AM

Latest Report: May 23, 2015 at 9:50 AM


Visibility: N/A

Pressure: 30.24 "Hg

Humidity: 63%

Dew point: 46 °F

Location of SouthamptonLocation

Historic Weather in Southampton — Graph

°F

Southampton temperature yesterday

Maximum temperature yesterday: 63 °F (at 3:20 PM)
Minimum temperature yesterday: 45 °F (at 5:50 AM)
Average temperature yesterday: 56 °F

Past Weeks' High & Low Weather Summary

 TemperatureHumidityPressure
High64 °F (May 21, 1:50 PM)94% (May 8, 8:50 PM)30.36 "Hg (May 8, 8:50 PM)
Low36 °F (May 13, 5:50 AM)40% (May 21, 1:50 PM)29.65 "Hg (May 18, 11:50 AM)
Average54 °F69%30.08 "Hg
* Reported May 8 9:20 AM — May 23 9:20 AM, Southampton, Weather by CustomWeather, © 2015

Note: Actual official high and low records may vary slightly from our data, if they occured in-between our weather recording intervals... More about our weather records

Advertising

Southampton weather history for previous 24 hours

 ConditionsComfort  
Time TempWeatherWind HumidityBarometerVisibility
9:20 AM
Sat, May 23
59 °FPassing clouds.8 mph63%30.27 "HgN/A
8:50 AM59 °FPassing clouds.8 mph68%30.27 "HgN/A
8:20 AM55 °FPassing clouds.9 mph72%30.27 "HgN/A
7:50 AM57 °FPassing clouds.13 mph67%30.24 "HgN/A
7:20 AM55 °FScattered clouds.12 mph77%30.24 "HgN/A
6:50 AM55 °FScattered clouds.7 mph88%30.24 "HgN/A
6:20 AM55 °FScattered clouds.5 mph88%30.24 "HgN/A
5:50 AM57 °FPassing clouds.6 mph82%30.24 "HgN/A
10:50 PM
Fri, May 22
57 °FPassing clouds.6 mph88%30.24 "HgN/A
10:20 PM59 °FPassing clouds.3 mph82%30.24 "HgN/A
9:50 PM59 °FPassing clouds.6 mph82%30.24 "HgN/A
9:20 PM59 °FPassing clouds.1 mph82%30.24 "HgN/A
8:50 PM59 °FPassing clouds.3 mph82%30.24 "HgN/A
8:20 PM61 °FPassing clouds.2 mph77%30.24 "HgN/A
7:50 PM61 °FPassing clouds.3 mph77%30.21 "HgN/A
7:20 PM61 °FPassing clouds.3 mph77%30.21 "HgN/A
6:50 PM61 °FScattered clouds.3 mph83%30.21 "HgN/A
6:20 PM61 °FScattered clouds.6 mph77%30.24 "HgN/A
5:50 PM59 °FScattered clouds.7 mph82%30.24 "Hg6 mi
5:20 PM59 °FLight rain. Scattered clouds.9 mph82%30.24 "Hg4 mi
4:50 PM61 °FScattered clouds.9 mph83%30.24 "Hg6 mi
4:20 PM63 °FScattered clouds.1 mph73%30.24 "Hg6 mi
3:50 PM63 °FPartly sunny.1 mph73%30.24 "Hg6 mi
3:20 PM63 °FPartly sunny.1 mph73%30.24 "Hg6 mi
2:50 PM59 °FPartly sunny.2 mph77%30.27 "Hg6 mi
2:20 PM59 °FScattered showers. Broken clouds.3 mph82%30.27 "Hg6 mi
1:50 PM57 °FScattered showers. Partly sunny.3 mph82%30.27 "Hg6 mi
1:20 PM57 °FScattered showers. Broken clouds.3 mph82%30.27 "Hg6 mi
12:50 PM55 °FScattered showers. Broken clouds.5 mph88%30.27 "Hg6 mi
12:20 PM55 °FScattered showers. Broken clouds.5 mph88%30.30 "Hg5 mi
11:50 AM55 °FScattered showers. Broken clouds.5 mph88%30.30 "Hg5 mi
11:20 AM54 °FScattered showers. Broken clouds.6 mph94%30.30 "Hg4 mi
10:50 AM54 °FDrizzle. Broken clouds.7 mph88%30.30 "Hg2 mi
10:20 AM52 °FLight rain. Broken clouds.6 mph94%30.33 "Hg2 mi
Weather by CustomWeather, © 2015

See weather overviewHow to use our weather pages